Starlink 5732

operational
NORAD ID: 55572 Int'l Des: 2023-020 Owner: SPXS Country: US Constellation: starlink
LEOCIRCULAR

Starlink 5732について

説明を読み込み中...

リアルタイム位置

3D地球を読み込み中...

次回通過

高度履歴

Altitude vs Time

uPlot chart will show altitude changes over time

軌道要素

1 55572U 23020D 25354.49733853 .00000439 00000-0 47544-4 0 9996
2 55572 43.0054 75.2162 0001213 266.2645 93.8059 15.02533049157002
Epoch: Dec 20, 2025 • Age: 12 hours

現在のステータス

高度 565.6 km
速度 7.58 km/s
衛星直下点 -27.41°S, 165.12°W
打ち上げ日 Feb 12, 2023
運用期間 2.8 years
タイプ internet

技術仕様

分類 Payload
質量 305.00 kg
乾燥質量 290.00 kg
総質量 305.00 kg
長さ 0.20 m
直径 2.80 m
スパン 9.00 m
形状 Box + pan
製造者 SPXS
バスタイプ Starlink
フェーズステータス In Orbit
所有者/国 SPXS/US

大規模コンステレーション

Loading constellations...